Weather History for Pittsburg, KS

Change the Weather History Date:

Friday, February 15, 2013

  Actual Average (KJLN) Record (KJLN)
Temperature  
Mean Temperature 34 °F 40 °F  
Max Temperature 41 °F 51 °F 72 °F (1976)
Min Temperature 26 °F 29 °F 8 °F (1986)
Degree Days  
Heating Degree Days 32 25  
Month to date heating degree days 405  
Since 1 July heating degree days 2954  
Cooling Degree Days 0 0  
Month to date cooling degree days 0  
Year to date cooling degree days 0  
Moisture  
Dew Point 20 °F    
Average Humidity 58    
Maximum Humidity 81    
Minimum Humidity 34    
Precipitation  
Precipitation 0.00 in 0.08 in 1.55 in (1957)
Month to date precipitation 1.14  
Year to date precipitation 3.17  
Sea Level Pressure  
Sea Level Pressure 30.29 in    
Wind  
Wind Speed 9 mph (NNW)    
Max Wind Speed 17 mph    
Max Gust Speed 24 mph    
Visibility 10 miles    
Events      
T = Trace of Precipitation, MM = Missing Value Source: NWS Daily Summary

Daily Weather History Graph

Daily Weather History Graph

Search for Another Location

Airport:

Trip Planner

Search our weather history database for the weather conditions in past years. The results will help you decide how hot, cold, wet, or windy it might be!

Date:

Astronomy

Feb. 15, 2013 Rise Set
Actual Time 7:07 AM CST 5:58 PM CST
Civil Twilight 6:41 AM CST 6:25 PM CST
Nautical Twilight 6:10 AM CST 6:56 PM CST
Astronomical Twilight 5:40 AM CST 7:26 PM CST
Moon 9:52 AM CST (2/15) 11:51 PM CST (2/15)
Length of Visible Light 11h 44m
Length of Day
10h 50m
Waxing Crescent, 30% of the Moon is Illuminated
Feb 15
Waxing Crescent
Feb 17
First Quarter
Feb 25
Full
Mar 4
Last Quarter
Mar 11
New

Hourly Weather History & Observations

Time (CST) Temp. Windchill Dew Point Humidity Pressure Visibility Wind Dir Wind Speed Gust Speed Precip Events Conditions
12:15 AM 41.9 °F 36.9 °F 28.0 °F 58% 30.18 in 10.0 mi NNW 8.1 mph - N/A   Overcast
12:35 AM 41.0 °F 35.2 °F 27.7 °F 59% 30.19 in 10.0 mi NNW 9.2 mph - N/A   Scattered Clouds
12:55 AM 40.5 °F 34.6 °F 27.0 °F 59% 30.20 in 10.0 mi NNW 9.2 mph - N/A   Clear
1:15 AM 39.7 °F 34.9 °F 26.8 °F 60% 30.20 in 10.0 mi NNW 6.9 mph - N/A   Clear
1:35 AM 38.3 °F 29.0 °F 25.2 °F 59% 30.20 in 10.0 mi NNW 17.3 mph 24.2 mph N/A   Clear
1:55 AM 37.9 °F 30.5 °F 25.5 °F 61% 30.21 in 10.0 mi NNW 11.5 mph 19.6 mph N/A   Clear
2:15 AM 36.7 °F 28.0 °F 25.7 °F 64% 30.22 in 10.0 mi NNW 13.8 mph 21.9 mph N/A   Clear
2:35 AM 35.6 °F 27.1 °F 25.2 °F 66% 30.23 in 10.0 mi NNW 12.7 mph 17.3 mph N/A   Clear
2:55 AM 35.6 °F 27.1 °F 26.2 °F 69% 30.24 in 10.0 mi NNW 12.7 mph - N/A   Clear
3:15 AM 34.5 °F 26.7 °F 26.1 °F 71% 30.24 in 10.0 mi NNW 10.4 mph 18.4 mph N/A   Clear
3:35 AM 32.9 °F 24.1 °F 25.5 °F 74% 30.24 in 10.0 mi NNW 11.5 mph - N/A   Clear
3:55 AM 32.9 °F 24.7 °F 26.2 °F 76% 30.24 in 10.0 mi NNW 10.4 mph - N/A   Clear
4:15 AM 32.9 °F 24.1 °F 26.8 °F 78% 30.25 in 10.0 mi NNW 11.5 mph 17.3 mph N/A   Clear
4:35 AM 32.9 °F 23.7 °F 27.3 °F 80% 30.26 in 10.0 mi NNW 12.7 mph 20.7 mph N/A   Scattered Clouds
4:55 AM 32.9 °F 24.7 °F 27.0 °F 79% 30.27 in 10.0 mi NNW 10.4 mph - N/A   Overcast
5:15 AM 32.9 °F 23.7 °F 26.4 °F 77% 30.27 in 10.0 mi NNW 12.7 mph 17.3 mph N/A   Overcast
5:35 AM 32.9 °F 24.1 °F 25.7 °F 75% 30.27 in 10.0 mi North 11.5 mph 23.0 mph N/A   Overcast
5:55 AM 32.7 °F 24.5 °F 25.5 °F 75% 30.29 in 10.0 mi NNW 10.4 mph 16.1 mph N/A   Mostly Cloudy
6:15 AM 31.6 °F 23.1 °F 25.2 °F 77% 30.29 in 10.0 mi NNW 10.4 mph 16.1 mph N/A   Scattered Clouds
6:35 AM 30.7 °F 22.0 °F 23.7 °F 75% 30.30 in 10.0 mi NNW 10.4 mph - N/A   Clear
6:55 AM 30.7 °F 21.4 °F 22.8 °F 72% 30.30 in 10.0 mi NNW 11.5 mph - N/A   Clear
7:15 AM 30.7 °F 20.9 °F 22.5 °F 71% 30.31 in 10.0 mi North 12.7 mph 17.3 mph N/A   Clear
7:35 AM 30.7 °F 20.0 °F 22.1 °F 70% 30.33 in 10.0 mi North 15.0 mph 21.9 mph N/A   Clear
7:55 AM 30.7 °F 21.4 °F 21.6 °F 69% 30.34 in 10.0 mi NNW 11.5 mph 23.0 mph N/A   Clear
8:15 AM 30.7 °F 22.6 °F 21.6 °F 69% 30.34 in 10.0 mi NNW 9.2 mph 17.3 mph N/A   Clear
8:35 AM 30.7 °F 22.0 °F 21.2 °F 68% 30.35 in 10.0 mi North 10.4 mph 16.1 mph N/A   Clear
8:55 AM 30.7 °F 21.4 °F 20.3 °F 65% 30.36 in 10.0 mi North 11.5 mph 17.3 mph N/A   Clear
9:15 AM 30.7 °F 22.0 °F 19.2 °F 62% 30.36 in 10.0 mi North 10.4 mph 17.3 mph N/A   Clear
9:35 AM 31.1 °F 23.1 °F 18.3 °F 59% 30.36 in 10.0 mi North 9.2 mph 16.1 mph N/A   Clear
9:55 AM 31.8 °F 22.3 °F 16.9 °F 54% 30.36 in 10.0 mi North 12.7 mph 18.4 mph N/A   Clear
10:15 AM 32.4 °F 23.5 °F 16.5 °F 52% 30.36 in 10.0 mi NNW 11.5 mph 18.4 mph N/A   Clear
10:35 AM 34.0 °F 26.0 °F 16.7 °F 49% 30.36 in 10.0 mi North 10.4 mph 16.1 mph N/A   Clear
10:55 AM 35.6 °F 27.1 °F 14.9 °F 43% 30.36 in 10.0 mi NNE 12.7 mph 18.4 mph N/A   Clear
11:15 AM 35.6 °F 28.6 °F 13.3 °F 40% 30.36 in 10.0 mi North 9.2 mph - N/A   Clear
11:55 AM 36.0 °F 29.0 °F 14.2 °F 41% 30.35 in 10.0 mi North 9.2 mph - N/A   Clear
12:15 PM 36.7 °F 28.9 °F 14.4 °F 40% 30.35 in 10.0 mi NNW 11.5 mph 16.1 mph N/A   Clear
12:35 PM 37.8 °F 31.8 °F 15.1 °F 40% 30.34 in 10.0 mi NNW 8.1 mph - N/A   Clear
12:55 PM 37.9 °F 31.5 °F 13.8 °F 37% 30.34 in 10.0 mi North 9.2 mph - N/A   Clear
1:15 PM 37.9 °F 32.7 °F 13.1 °F 36% 30.33 in 10.0 mi North 6.9 mph - N/A   Clear
1:35 PM 37.9 °F 32.1 °F 13.8 °F 37% 30.32 in 10.0 mi North 8.1 mph - N/A   Clear
1:55 PM 37.9 °F 32.7 °F 12.7 °F 36% 30.32 in 10.0 mi NW 6.9 mph - N/A   Clear
2:15 PM 38.1 °F 30.2 °F 14.9 °F 39% 30.31 in 10.0 mi NW 12.7 mph - N/A   Clear
2:35 PM 37.9 °F 32.1 °F 13.6 °F 37% 30.31 in 10.0 mi NNW 8.1 mph - N/A   Clear
2:55 PM 38.8 °F 32.1 °F 12.7 °F 34% 30.31 in 10.0 mi NNW 10.4 mph 16.1 mph N/A   Clear
3:15 PM 38.8 °F 32.1 °F 12.7 °F 34% 30.31 in 10.0 mi NNW 10.4 mph 18.4 mph N/A   Clear
3:35 PM 38.8 °F 32.1 °F 14.0 °F 36% 30.30 in 10.0 mi NNW 10.4 mph 16.1 mph N/A   Clear
3:55 PM 39.0 °F 32.8 °F 14.5 °F 37% 30.31 in 10.0 mi NNW 9.2 mph 17.3 mph N/A   Clear
4:15 PM 38.8 °F 32.1 °F 14.7 °F 37% 30.31 in 10.0 mi NNW 10.4 mph - N/A   Clear
4:35 PM 37.9 °F 32.1 °F 14.2 °F 38% 30.31 in 10.0 mi NW 8.1 mph - N/A   Clear
4:55 PM 37.9 °F 30.5 °F 13.8 °F 37% 30.31 in 10.0 mi NNW 11.5 mph 17.3 mph N/A   Clear
5:15 PM 37.9 °F 32.1 °F 13.3 °F 36% 30.30 in 10.0 mi NNW 8.1 mph - N/A   Clear
5:35 PM 37.9 °F 32.1 °F 13.6 °F 37% 30.30 in 10.0 mi NNW 8.1 mph - N/A   Scattered Clouds
5:55 PM 37.9 °F 31.5 °F 14.4 °F 38% 30.30 in 10.0 mi North 9.2 mph - N/A   Mostly Cloudy
6:15 PM 36.5 °F 31.8 °F 14.7 °F 41% 30.31 in 10.0 mi North 5.8 mph - N/A   Scattered Clouds
6:35 PM 35.6 °F 32.8 °F 15.6 °F 44% 30.31 in 10.0 mi NNW 3.5 mph - N/A   Clear
6:55 PM 35.6 °F - 18.7 °F 50% 30.31 in 10.0 mi Calm Calm - N/A   Clear
7:15 PM 33.4 °F - 19.8 °F 57% 30.31 in 10.0 mi Calm Calm - N/A   Clear
7:35 PM 32.9 °F - 20.8 °F 61% 30.31 in 10.0 mi Calm Calm - N/A   Clear
7:55 PM 32.7 °F - 25.0 °F 73% 30.30 in 10.0 mi Calm Calm - N/A   Clear
8:15 PM 31.1 °F - 24.6 °F 77% 30.30 in 10.0 mi Calm Calm - N/A   Clear
8:35 PM 30.7 °F - 19.8 °F 64% 30.29 in 10.0 mi Calm Calm - N/A   Clear
8:55 PM 30.7 °F - 19.8 °F 64% 30.29 in 10.0 mi Calm Calm - N/A   Clear
9:15 PM 30.7 °F - 21.2 °F 68% 30.29 in 10.0 mi Calm Calm - N/A   Clear
9:35 PM 29.7 °F 26.1 °F 19.9 °F 67% 30.28 in 10.0 mi SSW 3.5 mph - N/A   Clear
9:55 PM 28.0 °F - 19.4 °F 70% 30.28 in 10.0 mi Calm Calm - N/A   Clear
10:15 PM 28.2 °F 24.4 °F 19.6 °F 70% 30.27 in 10.0 mi South 3.5 mph - N/A   Scattered Clouds
10:35 PM 26.8 °F 22.8 °F 19.9 °F 75% 30.27 in 10.0 mi SW 3.5 mph - N/A   Scattered Clouds
10:55 PM 31.1 °F 25.4 °F 22.6 °F 71% 30.27 in 10.0 mi WNW 5.8 mph - N/A   Scattered Clouds
11:15 PM 35.2 °F 26.6 °F 23.5 °F 62% 30.28 in 10.0 mi NNW 12.7 mph 20.7 mph N/A   Scattered Clouds
11:35 PM 34.0 °F 25.5 °F 25.7 °F 72% 30.29 in 10.0 mi NW 11.5 mph 23.0 mph N/A   Mostly Cloudy
11:55 PM 32.5 °F 27.1 °F 27.3 °F 81% 30.29 in 3.0 mi NW 5.8 mph - N/A   Overcast